Charleston, SC

6:38 AM EST on February 08, 2016 (GMT -0500)
Charleston Executive

Weather History for KJZI - January, 2014

Change the Weather History Date:

Saturday, January 25, 2014

  Actual Average (KCHS) Record (KCHS)
Temperature  
Mean Temperature 38 °F 49 °F  
Max Temperature 55 °F 60 °F 82 °F (1949)
Min Temperature 21 °F 38 °F 16 °F (1963)
Degree Days  
Heating Degree Days 27 16  
Month to date heating degree days 424  
Since 1 July heating degree days 1162  
Cooling Degree Days 0 0  
Month to date cooling degree days 0  
Year to date cooling degree days 0  
Moisture  
Dew Point 26 °F    
Average Humidity 59    
Maximum Humidity 80    
Minimum Humidity 32    
Precipitation  
Precipitation 0.51 in 0.12 in 1.54 in (2010)
Month to date precipitation 3.00  
Year to date precipitation 3.00  
Sea Level Pressure  
Sea Level Pressure 30.05 in    
Wind  
Wind Speed 5 mph (WSW)    
Max Wind Speed 22 mph    
Max Gust Speed 31 mph    
Visibility 10 miles    
Events      
T = Trace of Precipitation, MM = Missing Value Source: NWS Daily Summary

Daily Weather History Graph

Daily Weather History Graph

Search for Another Location

Airport or City:

Trip Planner

Search our weather history database for the weather conditions in past years. The results will help you decide how hot, cold, wet, or windy it might be!

Date:

Astronomy

Jan. 25, 2014 Rise Set
Actual Time 7:18 AM EST 5:46 PM EST
Civil Twilight 6:52 AM EST 6:12 PM EST
Nautical Twilight 6:22 AM EST 6:42 PM EST
Astronomical Twilight 5:53 AM EST 7:11 PM EST
Moon 1:50 AM EST (1/25) 12:45 PM EST (1/25)
Length of Visible Light 11h 19m
Length of Day
10h 27m
Waning Crescent, 34% of the Moon is Illuminated
Jan 25
Waning Crescent
Jan 30
New
Feb 6
First Quarter
Feb 14
Full
Feb 22
Last Quarter

Hourly Weather History & Observations

Time (EST) Temp. Windchill Dew Point Humidity Pressure Visibility Wind Dir Wind Speed Gust Speed Precip Events Conditions
12:15 AM 23.0 °F - 12.2 °F 63% 30.35 in 10.0 mi Calm Calm - 0.00 in   Clear
12:35 AM 23.0 °F - 12.2 °F 63% 30.34 in 10.0 mi Calm Calm - 0.00 in   Clear
12:55 AM 23.0 °F - 14.0 °F 68% 30.33 in 10.0 mi Calm Calm - 0.00 in   Clear
1:15 AM 21.2 °F - 14.0 °F 74% 30.32 in 10.0 mi Calm Calm - 0.00 in   Clear
1:35 AM 21.2 °F - 14.0 °F 74% 30.31 in 10.0 mi Calm Calm - 0.00 in   Clear
1:55 AM 21.2 °F - 14.0 °F 74% 30.30 in 10.0 mi Calm Calm - 0.00 in   Clear
2:15 AM 21.2 °F - 15.8 °F 80% 30.29 in 10.0 mi Calm Calm - 0.00 in   Clear
2:35 AM 23.0 °F - 17.6 °F 80% 30.28 in 10.0 mi Calm Calm - 0.00 in   Clear
2:55 AM 21.2 °F - 14.0 °F 74% 30.28 in 10.0 mi Calm Calm - 0.00 in   Clear
3:15 AM 21.2 °F - 15.8 °F 80% 30.27 in 10.0 mi Calm Calm - 0.00 in   Clear
3:35 AM 21.2 °F - 15.8 °F 80% 30.26 in 10.0 mi Calm Calm - 0.00 in   Clear
3:55 AM 21.2 °F - 15.8 °F 80% 30.24 in 10.0 mi Calm Calm - 0.00 in   Clear
4:15 AM 23.0 °F - 17.6 °F 80% 30.22 in 10.0 mi Calm Calm - 0.00 in   Clear
4:35 AM 21.2 °F 14.9 °F 15.8 °F 80% 30.22 in 10.0 mi WNW 4.6 mph - 0.00 in   Clear
4:55 AM 23.0 °F - 17.6 °F 80% 30.22 in 10.0 mi Calm Calm - 0.00 in   Scattered Clouds
5:15 AM 26.6 °F - 21.2 °F 80% 30.21 in 10.0 mi Calm Calm - 0.00 in   Overcast
5:35 AM 28.4 °F - 23.0 °F 80% 30.20 in 10.0 mi Calm Calm - 0.00 in   Overcast
5:55 AM 26.6 °F - 21.2 °F 80% 30.20 in 6.0 mi Calm Calm - 0.00 in   Haze
6:15 AM 26.6 °F - 21.2 °F 80% 30.19 in 10.0 mi Calm Calm - 0.00 in   Scattered Clouds
6:35 AM 26.6 °F - 19.4 °F 74% 30.19 in 10.0 mi Calm Calm - 0.00 in   Clear
6:55 AM 24.8 °F - 19.4 °F 80% 30.19 in 10.0 mi Calm Calm - 0.00 in   Clear
7:15 AM 24.8 °F - 19.4 °F 80% 30.18 in 10.0 mi Calm Calm - 0.00 in   Clear
7:35 AM 23.0 °F - 17.6 °F 80% 30.17 in 10.0 mi Calm Calm - 0.00 in   Clear
7:55 AM 26.6 °F - 19.4 °F 74% 30.16 in 10.0 mi Calm Calm - 0.00 in   Clear
8:15 AM 32.0 °F - 21.2 °F 64% 30.16 in 10.0 mi Calm Calm - 0.00 in   Clear
8:35 AM 33.8 °F 28.6 °F 23.0 °F 65% 30.16 in 10.0 mi West 5.8 mph - 0.00 in   Clear
8:55 AM 35.6 °F 29.2 °F 23.0 °F 60% 30.15 in 10.0 mi WSW 8.1 mph - 0.00 in   Clear
9:15 AM 37.4 °F 30.8 °F 24.8 °F 60% 30.15 in 10.0 mi WSW 9.2 mph - 0.00 in   Clear
9:35 AM 39.2 °F 33.0 °F 24.8 °F 56% 30.14 in 10.0 mi SW 9.2 mph - 0.00 in   Clear
9:55 AM 42.8 °F 36.6 °F 23.0 °F 46% 30.12 in 10.0 mi WSW 11.5 mph 17.3 mph 0.00 in   Clear
10:15 AM 44.6 °F 38.1 °F 23.0 °F 43% 30.11 in 10.0 mi SW 13.8 mph 24.2 mph 0.00 in   Clear
10:35 AM 44.6 °F 38.1 °F 21.2 °F 39% 30.10 in 10.0 mi West 13.8 mph 23.0 mph 0.00 in   Partly Cloudy
10:55 AM 46.4 °F 39.5 °F 21.2 °F 37% 30.10 in 10.0 mi West 17.3 mph 25.3 mph 0.00 in   Clear
11:15 AM 46.4 °F 39.8 °F 21.2 °F 37% 30.07 in 10.0 mi WSW 16.1 mph 24.2 mph 0.00 in   Clear
11:35 AM 48.2 °F - 21.2 °F 34% 30.04 in 10.0 mi WSW 12.7 mph 21.9 mph 0.00 in   Clear
11:55 AM 50.0 °F - 21.2 °F 32% 30.02 in 10.0 mi SW 16.1 mph 26.5 mph 0.00 in   Clear
12:15 PM 50.0 °F - 23.0 °F 35% 30.00 in 10.0 mi SW 13.8 mph 27.6 mph 0.00 in   Clear
12:35 PM 51.8 °F - 24.8 °F 35% 29.98 in 10.0 mi SW 15.0 mph 23.0 mph 0.51 in   Clear
12:55 PM 51.8 °F - 26.6 °F 38% 29.96 in 10.0 mi SW 15.0 mph 24.2 mph 0.51 in   Clear
1:15 PM 51.8 °F - 26.6 °F 38% 29.94 in 10.0 mi WSW 11.5 mph 26.5 mph 0.00 in   Clear
1:35 PM 53.6 °F - 26.6 °F 35% 29.91 in 10.0 mi SSW 19.6 mph 27.6 mph 0.00 in   Clear
1:55 PM 53.6 °F - 26.6 °F 35% 29.90 in 10.0 mi SW 19.6 mph 29.9 mph 0.00 in   Clear
2:15 PM 53.6 °F - 26.6 °F 35% 29.89 in 10.0 mi SW 16.1 mph 25.3 mph 0.00 in   Clear
2:35 PM 53.6 °F - 26.6 °F 35% 29.89 in 10.0 mi WSW 21.9 mph 28.8 mph 0.00 in   Clear
2:55 PM 53.6 °F - 26.6 °F 35% 29.88 in 10.0 mi WSW 17.3 mph 28.8 mph 0.00 in   Clear
3:15 PM 55.4 °F - 28.4 °F 36% 29.86 in 10.0 mi WSW 16.1 mph 31.1 mph 0.00 in   Clear
3:35 PM 55.4 °F - 32.0 °F 41% 29.85 in 10.0 mi SSW 15.0 mph 24.2 mph 0.00 in   Clear
3:55 PM 55.4 °F - 33.8 °F 44% 29.84 in 10.0 mi SSW 13.8 mph 21.9 mph 0.00 in   Clear
4:15 PM 55.4 °F - 35.6 °F 47% 29.84 in 10.0 mi SSW 11.5 mph - 0.00 in   Clear
4:35 PM 55.4 °F - 35.6 °F 47% 29.83 in 10.0 mi SSW 12.7 mph 16.1 mph 0.00 in   Clear
4:55 PM 55.4 °F - 35.6 °F 47% 29.82 in 10.0 mi SSW 11.5 mph 17.3 mph 0.00 in   Clear
5:15 PM 55.4 °F - 35.6 °F 47% 29.83 in 10.0 mi SW 11.5 mph 20.7 mph 0.00 in   Partly Cloudy
5:35 PM 53.6 °F - 33.8 °F 47% 29.84 in 10.0 mi SW 11.5 mph 17.3 mph 0.00 in   Scattered Clouds
5:55 PM 55.4 °F - 33.8 °F 44% 29.84 in 10.0 mi WSW 12.7 mph 25.3 mph 0.00 in   Mostly Cloudy
6:15 PM 53.6 °F - 33.8 °F 47% 29.85 in 10.0 mi SW 10.4 mph 17.3 mph 0.00 in   Partly Cloudy
6:35 PM 53.6 °F - 35.6 °F 51% 29.86 in 10.0 mi WSW 10.4 mph - 0.00 in   Clear
6:55 PM 53.6 °F - 35.6 °F 51% 29.86 in 10.0 mi WSW 10.4 mph 21.9 mph 0.00 in   Clear
7:15 PM 53.6 °F - 37.4 °F 54% 29.87 in 10.0 mi WSW 12.7 mph 18.4 mph 0.00 in   Clear
7:35 PM 53.6 °F - 37.4 °F 54% 29.88 in 10.0 mi SW 8.1 mph 17.3 mph 0.00 in   Clear
7:55 PM 53.6 °F - 37.4 °F 54% 29.89 in 10.0 mi WSW 13.8 mph 17.3 mph 0.00 in   Clear
8:15 PM 51.8 °F - 37.4 °F 58% 29.91 in 10.0 mi WSW 11.5 mph 17.3 mph 0.00 in   Clear
8:35 PM 51.8 °F - 39.2 °F 62% 29.91 in 10.0 mi WSW 9.2 mph - 0.00 in   Clear
8:55 PM 51.8 °F - 39.2 °F 62% 29.92 in 10.0 mi WSW 9.2 mph 20.7 mph 0.00 in   Clear
9:15 PM 51.8 °F - 39.2 °F 62% 29.93 in 10.0 mi WSW 10.4 mph 16.1 mph 0.00 in   Clear
10:15 PM 50.0 °F - 41.0 °F 71% 29.95 in 10.0 mi WSW 8.1 mph - 0.00 in   Clear
10:35 PM 50.0 °F - 41.0 °F 71% 29.96 in 10.0 mi WSW 10.4 mph - 0.00 in   Clear
10:55 PM 48.2 °F - 41.0 °F 76% 29.97 in 10.0 mi West 8.1 mph - 0.00 in   Clear
11:15 PM 48.2 °F - 41.0 °F 76% 29.98 in 10.0 mi WSW 10.4 mph - 0.00 in   Clear
11:35 PM 48.2 °F - 41.0 °F 76% 29.98 in 10.0 mi WSW 6.9 mph - 0.00 in   Clear
11:55 PM 48.2 °F - 41.0 °F 76% 29.98 in 10.0 mi West 8.1 mph - 0.00 in   Clear